W1LP-13 Weather Reports


time (UTC)temp
C
wind
direction
speed
KPH
gust
KPH
rain 1hr
cm
rain 24hr
cm
rain mn
cm
humidity
%
barometer
mb
20260505091540 10 190 4.8 12.9 0.00 0.00 0.00 89 1009.2
20260505090040 10 220 4.8 12.9 0.00 0.00 0.00 89 1009.2
20260505084537 10 225 4.8 11.3 0.00 0.00 0.00 89 1009.3
20260505083036 10 190 4.8 12.9 0.00 0.00 0.00 89 1009.3
20260505081543 10 211 4.8 12.9 0.00 0.00 0.00 89 1009.4
20260505080038 10 205 6.4 19.3 0.00 0.00 0.00 89 1009.5
20260505074533 10 203 4.8 19.3 0.00 0.00 0.00 90 1009.7
20260505073042 10 240 4.8 11.3 0.00 0.00 0.00 90 1009.6
20260505071544 10 221 6.4 16.1 0.00 0.00 0.00 91 1009.5
20260505070027 10 211 4.8 16.1 0.00 0.00 0.00 91 1009.6
20260505064527 10 200 3.2 11.3 0.00 0.00 0.00 90 1009.5
20260505063024 10 210 4.8 12.9 0.00 0.00 0.00 90 1009.5
20260505060010 10 217 4.8 14.5 0.00 0.00 0.00 89 1009.5
20260505054509 10 203 6.4 16.1 0.00 0.00 0.00 89 1009.5
20260505053004 10 201 6.4 16.1 0.00 0.00 0.00 88 1009.4
20260505051600 10 225 6.4 22.5 0.00 0.00 0.00 88 1009.5
20260505041552 10 231 6.4 22.5 0.00 0.00 0.00 87 1009.7
20260505040050 10 191 6.4 17.7 0.00 0.00 0.00 86 1009.8
20260505034545 10 360 6.4 29.0 0.00 0.00 0.00 87 1009.8
20260505033047 10 206 6.4 12.9 0.00 0.00 0.00 86 1009.9
20260505031545 10 183 6.4 16.1 0.00 0.00 0.00 86 1009.9
20260505030044 10 360 6.4 16.1 0.00 0.00 0.00 85 1010.0
20260505024545 10 200 6.4 17.7 0.00 0.00 0.00 85 1010.0
20260505023047 10 205 4.8 14.5 0.00 0.00 0.00 84 1010.2
20260505021540 10 192 6.4 22.5 0.00 0.00 0.00 83 1010.0
20260505020039 11 230 8.0 24.1 0.00 0.00 0.00 82 1010.1
20260505014538 11 213 8.0 29.0 0.00 0.00 0.00 81 1009.8
20260505013036 11 204 8.0 20.9 0.00 0.00 0.00 80 1009.7
20260505011545 11 186 8.0 24.1 0.00 0.00 0.00 78 1009.4
20260505010038 11 223 6.4 30.6 0.00 0.00 0.00 76 1009.2
20260505004535 11 173 6.4 17.7 0.00 0.00 0.00 74 1009.2
20260505003033 11 200 8.0 17.7 0.00 0.00 0.00 72 1009.0
20260505001534 11 211 8.0 19.3 0.00 0.00 0.00 69 1008.5
20260505000034 11 217 6.4 16.1 0.00 0.00 0.00 69 1008.5
20260504234532 11 194 8.0 19.3 0.00 0.00 0.00 68 1008.4
20260504233031 12 182 8.0 19.3 0.00 0.00 0.00 67 1008.3
20260504231531 12 217 11.3 27.4 0.00 0.00 0.00 64 1008.0
20260504230031 12 202 11.3 30.6 0.00 0.00 0.00 61 1007.9
20260504224529 13 185 6.4 24.1 0.00 0.00 0.00 60 1007.7
20260504223029 13 220 8.0 30.6 0.00 0.00 0.00 58 1007.7
20260504221528 13 148 9.7 20.9 0.00 0.00 0.00 56 1007.5
20260504220028 14 173 11.3 27.4 0.00 0.00 0.00 56 1007.3
20260504214527 15 198 11.3 35.4 0.00 0.00 0.00 55 1007.4
20260504213028 15 205 11.3 33.8 0.00 0.00 0.00 54 1007.3
20260504211527 15 193 14.5 33.8 0.00 0.00 0.00 53 1007.3
20260504210025 15 360 14.5 41.8 0.00 0.00 0.00 53 1007.4
20260504204528 15 194 14.5 40.2 0.00 0.00 0.00 50 1007.3
20260504203025 16 230 12.9 30.6 0.00 0.00 0.00 49 1007.2
20260504201524 16 196 17.7 35.4 0.00 0.00 0.00 44 1007.0
20260504200035 16 190 11.3 45.1 0.00 0.00 0.00 45 1007.2
20260504194522 16 184 11.3 41.8 0.00 0.00 0.00 47 1007.2
20260504193021 16 206 16.1 30.6 0.00 0.00 0.00 47 1007.2
20260504191530 16 198 17.7 43.5 0.00 0.00 0.00 49 1007.5
20260504190014 16 116 11.3 29.0 0.00 0.00 0.00 48 1007.7
20260504184513 16 360 16.1 30.6 0.00 0.00 0.00 46 1007.6
20260504183010 16 190 11.3 27.4 0.00 0.00 0.00 51 1007.5
20260504181503 17 192 11.3 27.4 0.00 0.00 0.00 51 1007.7
20260504174604 16 360 12.9 37.0 0.00 0.03 0.00 53 1007.4
20260504173100 16 111 12.9 29.0 0.00 0.03 0.00 51 1007.7
20260504171554 17 206 9.7 25.7 0.00 0.03 0.00 46 1007.6